Simultaneous Nadir Overpasses (SNOs) Predictions

Prediction of SNOs between GOES-17 and AQUA Satellite Orbit:

Table of predicted SNOs for the next 14.0 days since TLE Epoch: 4/11/2019
Index Date Time (GOES-17) GOES-17 Lat,Lon AQUA Lat,Lon Distance(km) Time Diff (sec)
1 04/12/2019 22:43:03 0.01,-137.19 0.13,-136.47 81.15 80
2 04/14/2019 22:30:51 0.00,-137.18 0.75,-133.51 416.36 80
3 04/15/2019 10:52:08 -0.00,-137.20 0.29,-138.69 168.21 80
4 04/17/2019 10:37:16 -0.02,-137.18 -0.34,-135.73 165.94 80
5 04/17/2019 22:58:39 0.02,-137.15 -0.79,-140.91 427.53 80
6 04/19/2019 22:46:27 0.03,-137.13 -0.16,-137.95 93.33 80
7 04/21/2019 22:36:55 0.03,-137.11 0.47,-134.99 240.38 80
8 04/22/2019 10:58:11 -0.03,-137.13 0.62,-140.15 343.57 80
9 04/24/2019 10:45:59 -0.03,-137.10 -0.02,-137.20 10.67 80




NCC Satellite Simultaneous Nadir Overpasses (SNOs) Prediction Service
